sat.trackr.live / text

‹ back to catalog

STARLINK-5341

NORAD 55287 · 2023-010U

PAYLOAD ACTIVE UNKNOWN

§ Identity

Operator
Country
US
Launch date
2023-01-19
Launch site
AFWTR
Launch vehicle
Mass (kg)
RCS (m²)

Purposes: comms

External: N2YO · Heavens-Above · Gunter

§ Orbital elements

Epoch: 2026-09-20T22:00:03.000096Z

Period
95.44 min
Inclination
70.0004°
Eccentricity
0.0003662
Mean motion
15.08744669 rev/d
Perigee alt
537.5 km
Apogee alt
542.6 km
Semi-major
6,918.2 km
B*
3.5883e-3
RAAN
232.2359°
Arg perigee
277.4220°
Mean anomaly
58.3340°
Rev number
566

§ Raw data

STARLINK-53411 55287U 23010U   26263.91670139  .00056806  00000+0  35883-2 0  99912 55287  70.0004 232.2359 0003662 277.4220  58.3340 15.08744669  5667

JSON: /api/v1/satellites/55287 · /tle

For live sub-satellite position, see the globe view (requires WebGL).

§ Visibility from observer

Set your observer location to see the next 7 days of passes ≥ 10°. The values pass through the URL so the page stays shareable.

No JS? Fill the form by hand. The geolocation button needs JavaScript.